Weather in Narodychi

Ukraine / Zhytomyr Region     51˚12′09″N   29˚04′50″E
temp.,
°C
wind,
m/s
gust,
m/s
humid.,
%
clouds,
%
prec.,
mm/h
press.,
hPa
HPBL,
m
16 january, sat
sat1623:00−14˚nw379398 0.0 1014455
02:00−16˚nw479186 0.0 1014414
05:00−17˚nw4791100 0.0 1014410
08:00−18˚wnw4691100 0.0 1015428
11:00−16˚wnw358599 0.0 1016565
14:00−15˚wnw3579100 0.1 1016751
17:00−15˚nw2488100 0.0 1017317
20:00−16˚nw129288 0.0 101741
17 january, sun
sun1723:00−16˚w119312 0.0 101822
02:00−17˚nne11936 0.0 101820
05:00−16˚nne119167 0.0 101771
08:00−16˚nne128783 0.0 1017134
11:00−14˚nnw2376100 0.0 1018355
14:00−13˚nnw2383100 0.0 1018415
17:00−13˚nnw3493100 0.6 1018371
20:00−14˚nnw3589100 0.8 1018484
18 january, mon
mon1823:00−14˚nnw3591100 0.0 1019401
02:00−15˚nnw3492100 0.1 1020293
05:00−17˚nw3592100 0.0 1019258
08:00−18˚nnw3792100 0.0 1021274
11:00−17˚nnw348796 0.0 1021319
14:00−15˚nw348486 0.0 1021399
17:00−16˚nw239024 0.0 102262
20:00−17˚nw249517 0.0 1022132
19 january, tue
tue1923:00−15˚nw249392 0.1 1022259
02:00−15˚wnw359495 0.1 1022245
05:00−13˚wnw369393 0.1 1021274
08:00−15˚w249488 0.1 1021145
11:00−12˚w248817 0.0 1021218
14:00−10˚sw23828 0.0 1020268
17:00−13˚ssw33880 0.0 102059
20:00−13˚s23900 0.0 102043
20 january, wed
wed2023:00−12˚sse339510 0.0 102059
02:00−11˚s359636 0.0 1019101
05:00−9˚s369689 0.1 1018146
08:00−9˚s359688 0.1 1018102
11:00−5˚s488782 0.0 1018293
14:00−4˚s498863 0.0 1017367
17:00−5˚s499296 0.0 1017271
20:00−5˚s499395 0.0 1017261